Year,Month,Day,Hour,Minute,Value (Times are PST for temperature in C)
2010,08,17,00,00,18.60
2010,08,17,00,01,18.60
2010,08,17,00,02,18.60
2010,08,17,00,03,18.60
2010,08,17,00,04,18.50
2010,08,17,00,05,18.50
2010,08,17,00,06,18.50
2010,08,17,00,07,18.40
2010,08,17,00,08,18.40
2010,08,17,00,09,18.40
2010,08,17,00,10,18.40
2010,08,17,00,11,18.40
2010,08,17,00,12,18.40
2010,08,17,00,13,18.40
2010,08,17,00,14,18.40
2010,08,17,00,15,18.40
2010,08,17,00,16,18.40
2010,08,17,00,17,18.40
2010,08,17,00,18,18.40
2010,08,17,00,19,18.30
2010,08,17,00,20,18.30
2010,08,17,00,21,18.30
2010,08,17,00,22,18.30
2010,08,17,00,23,18.30
2010,08,17,00,24,18.30
2010,08,17,00,25,18.30
2010,08,17,00,26,18.30
2010,08,17,00,27,18.20
2010,08,17,00,28,18.20
2010,08,17,00,29,18.20
2010,08,17,00,30,18.20
2010,08,17,00,31,18.20
2010,08,17,00,32,18.20
2010,08,17,00,33,18.20
2010,08,17,00,34,18.20
2010,08,17,00,35,18.20
2010,08,17,00,36,18.20
2010,08,17,00,37,18.20
2010,08,17,00,38,18.10
2010,08,17,00,39,18.10
2010,08,17,00,40,18.10
2010,08,17,00,41,18.10
2010,08,17,00,42,18.10
2010,08,17,00,43,18.10
2010,08,17,00,44,18.10
2010,08,17,00,45,18.10
2010,08,17,00,46,18.10
2010,08,17,00,47,18.00
2010,08,17,00,48,18.00
2010,08,17,00,49,18.00
2010,08,17,00,50,18.00
2010,08,17,00,51,18.00
2010,08,17,00,52,17.90
2010,08,17,00,53,17.90
2010,08,17,00,54,17.90
2010,08,17,00,55,17.90
2010,08,17,00,56,17.90
2010,08,17,00,57,17.90
2010,08,17,00,58,17.90
2010,08,17,00,59,17.80
2010,08,17,01,00,17.80
2010,08,17,01,01,17.80
2010,08,17,01,02,17.80
2010,08,17,01,03,17.80
2010,08,17,01,04,17.80
2010,08,17,01,05,17.80
2010,08,17,01,06,17.80
2010,08,17,01,07,17.80
2010,08,17,01,08,17.70
2010,08,17,01,09,17.70
2010,08,17,01,10,17.70
2010,08,17,01,11,17.70
2010,08,17,01,12,17.70
2010,08,17,01,13,17.70
2010,08,17,01,14,17.70
2010,08,17,01,15,17.70
2010,08,17,01,16,17.70
2010,08,17,01,17,17.70
2010,08,17,01,18,17.60
2010,08,17,01,19,17.60
2010,08,17,01,20,17.60
2010,08,17,01,21,17.60
2010,08,17,01,22,17.60
2010,08,17,01,23,17.60
2010,08,17,01,24,17.60
2010,08,17,01,25,17.60
2010,08,17,01,26,17.60
2010,08,17,01,27,17.50
2010,08,17,01,28,17.50
2010,08,17,01,29,17.50
2010,08,17,01,30,17.50
2010,08,17,01,31,17.40
2010,08,17,01,32,17.40
2010,08,17,01,33,17.40
2010,08,17,01,34,17.40
2010,08,17,01,35,17.40
2010,08,17,01,36,17.40
2010,08,17,01,37,17.40
2010,08,17,01,38,17.30
2010,08,17,01,39,17.30
2010,08,17,01,40,17.30
2010,08,17,01,41,17.30
2010,08,17,01,42,17.30
2010,08,17,01,43,17.30
2010,08,17,01,44,17.30
2010,08,17,01,49,17.30
2010,08,17,01,50,17.30
2010,08,17,01,51,17.30
2010,08,17,01,52,17.30
2010,08,17,01,53,17.30
2010,08,17,01,54,17.20
2010,08,17,01,55,17.20
2010,08,17,01,56,17.20
2010,08,17,01,57,17.20
2010,08,17,01,58,17.20
2010,08,17,01,59,17.20
2010,08,17,02,00,17.20
2010,08,17,02,01,17.20
2010,08,17,02,02,17.20
2010,08,17,02,03,17.20
2010,08,17,02,04,17.20
2010,08,17,02,05,17.20
2010,08,17,02,06,17.20
2010,08,17,02,07,17.20
2010,08,17,02,08,17.20
2010,08,17,02,09,17.20
2010,08,17,02,10,17.20
2010,08,17,02,11,17.20
2010,08,17,02,12,17.20
2010,08,17,02,13,17.20
2010,08,17,02,14,17.20
2010,08,17,02,15,17.20
2010,08,17,02,16,17.20
2010,08,17,02,17,17.20
2010,08,17,02,18,17.20
2010,08,17,02,19,17.20
2010,08,17,02,20,17.20
2010,08,17,02,21,17.20
2010,08,17,02,22,17.20
2010,08,17,02,23,17.20
2010,08,17,02,24,17.20
2010,08,17,02,25,17.20
2010,08,17,02,26,17.20
2010,08,17,02,27,17.20
2010,08,17,02,28,17.20
2010,08,17,02,29,17.20
2010,08,17,02,30,17.20
2010,08,17,02,31,17.20
2010,08,17,02,32,17.20
2010,08,17,02,33,17.20
2010,08,17,02,34,17.20
2010,08,17,02,35,17.20
2010,08,17,02,36,17.20
2010,08,17,02,37,17.20
2010,08,17,02,38,17.20
2010,08,17,02,39,17.20
2010,08,17,02,40,17.20
2010,08,17,02,41,17.10
2010,08,17,02,42,17.10
2010,08,17,02,43,17.10
2010,08,17,02,44,17.10
2010,08,17,02,45,17.10
2010,08,17,02,46,17.10
2010,08,17,02,47,17.10
2010,08,17,02,48,17.10
2010,08,17,02,49,17.10
2010,08,17,02,50,17.10
2010,08,17,02,51,17.10
2010,08,17,02,52,17.10
2010,08,17,02,53,17.00
2010,08,17,02,54,17.00
2010,08,17,02,55,17.00
2010,08,17,02,56,17.00
2010,08,17,02,57,17.00
2010,08,17,02,58,17.00
2010,08,17,02,59,17.00
2010,08,17,03,00,17.00
2010,08,17,03,01,17.00
2010,08,17,03,02,17.00
2010,08,17,03,03,17.00
2010,08,17,03,04,16.90
2010,08,17,03,05,17.00
2010,08,17,03,06,16.90
2010,08,17,03,07,16.90
2010,08,17,03,08,16.90
2010,08,17,03,09,16.90
2010,08,17,03,10,16.90
2010,08,17,03,11,16.90
2010,08,17,03,12,16.90
2010,08,17,03,13,16.90
2010,08,17,03,14,16.90
2010,08,17,03,15,16.90
2010,08,17,03,16,16.90
2010,08,17,03,17,16.90
2010,08,17,03,18,16.90
2010,08,17,03,19,16.90
2010,08,17,03,20,16.90
2010,08,17,03,21,16.90
2010,08,17,03,22,16.90
2010,08,17,03,23,16.90
2010,08,17,03,24,16.90
2010,08,17,03,25,16.90
2010,08,17,03,26,16.90
2010,08,17,03,27,16.90
2010,08,17,03,28,16.90
2010,08,17,03,29,16.90
2010,08,17,03,30,16.90
2010,08,17,03,31,16.90
2010,08,17,03,32,16.90
2010,08,17,03,33,16.90
2010,08,17,03,34,16.90
2010,08,17,03,35,16.90
2010,08,17,03,36,16.90
2010,08,17,03,37,16.90
2010,08,17,03,38,16.90
2010,08,17,03,39,16.90
2010,08,17,03,40,16.90
2010,08,17,03,41,16.90
2010,08,17,03,42,16.90
2010,08,17,03,43,16.90
2010,08,17,03,44,16.90
2010,08,17,03,45,16.90
2010,08,17,03,46,16.90
2010,08,17,03,47,16.80
2010,08,17,03,48,16.80
2010,08,17,03,49,16.80
2010,08,17,03,50,16.80
2010,08,17,03,51,16.80
2010,08,17,03,52,16.80
2010,08,17,03,53,16.80
2010,08,17,03,54,16.80
2010,08,17,03,55,16.80
2010,08,17,03,56,16.80
2010,08,17,03,57,16.80
2010,08,17,03,58,16.80
2010,08,17,03,59,16.70
2010,08,17,04,00,16.70
2010,08,17,04,01,16.70
2010,08,17,04,02,16.70
2010,08,17,04,03,16.70
2010,08,17,04,04,16.70
2010,08,17,04,05,16.70
2010,08,17,04,06,16.70
2010,08,17,04,07,16.70
2010,08,17,04,08,16.70
2010,08,17,04,09,16.70
2010,08,17,04,10,16.70
2010,08,17,04,11,16.60
2010,08,17,04,12,16.60
2010,08,17,04,13,16.60
2010,08,17,04,14,16.60
2010,08,17,04,15,16.60
2010,08,17,04,16,16.60
2010,08,17,04,17,16.60
2010,08,17,04,18,16.60
2010,08,17,04,19,16.60
2010,08,17,04,20,16.60
2010,08,17,04,21,16.50
2010,08,17,04,22,16.50
2010,08,17,04,23,16.50
2010,08,17,04,24,16.40
2010,08,17,04,25,16.40
2010,08,17,04,26,16.40
2010,08,17,04,27,16.40
2010,08,17,04,28,16.40
2010,08,17,04,29,16.40
2010,08,17,04,30,16.40
2010,08,17,04,31,16.30
2010,08,17,04,32,16.30
2010,08,17,04,33,16.30
2010,08,17,04,34,16.30
2010,08,17,04,35,16.30
2010,08,17,04,36,16.30
2010,08,17,04,37,16.30
2010,08,17,04,38,16.20
2010,08,17,04,39,16.20
2010,08,17,04,40,16.20
2010,08,17,04,41,16.20
2010,08,17,04,42,16.20
2010,08,17,04,43,16.20
2010,08,17,04,44,16.20
2010,08,17,04,45,16.20
2010,08,17,04,46,16.10
2010,08,17,04,47,16.10
2010,08,17,04,48,16.10
2010,08,17,04,49,16.10
2010,08,17,04,50,16.10
2010,08,17,04,51,16.10
2010,08,17,04,52,16.10
2010,08,17,04,53,16.10
2010,08,17,04,54,16.00
2010,08,17,04,55,16.00
2010,08,17,04,56,16.00
2010,08,17,04,57,16.00
2010,08,17,04,58,16.00
2010,08,17,04,59,16.00
2010,08,17,05,00,15.90
2010,08,17,05,01,15.90
2010,08,17,05,02,15.90
2010,08,17,05,03,15.90
2010,08,17,05,04,15.90
2010,08,17,05,05,15.90
2010,08,17,05,06,15.90
2010,08,17,05,07,15.90
2010,08,17,05,08,15.90
2010,08,17,05,09,15.90
2010,08,17,05,10,15.90
2010,08,17,05,11,15.90
2010,08,17,05,12,15.80
2010,08,17,05,13,15.80
2010,08,17,05,14,15.80
2010,08,17,05,15,15.80
2010,08,17,05,16,15.80
2010,08,17,05,17,15.80
2010,08,17,05,18,15.80
2010,08,17,05,19,15.80
2010,08,17,05,20,15.80
2010,08,17,05,21,15.80
2010,08,17,05,22,15.70
2010,08,17,05,23,15.70
2010,08,17,05,24,15.70
2010,08,17,05,25,15.70
2010,08,17,05,26,15.70
2010,08,17,05,27,15.70
2010,08,17,05,28,15.70
2010,08,17,05,29,15.70
2010,08,17,05,30,15.70
2010,08,17,05,31,15.60
2010,08,17,05,32,15.60
2010,08,17,05,33,15.60
2010,08,17,05,34,15.60
2010,08,17,05,35,15.60
2010,08,17,05,36,15.60
2010,08,17,05,37,15.60
2010,08,17,05,38,15.60
2010,08,17,05,39,15.60
2010,08,17,05,40,15.60
2010,08,17,05,41,15.60
2010,08,17,05,42,15.60
2010,08,17,05,43,15.60
2010,08,17,05,44,15.60
2010,08,17,05,45,15.60
2010,08,17,05,46,15.60
2010,08,17,05,47,15.50
2010,08,17,05,48,15.50
2010,08,17,05,49,15.50
2010,08,17,05,50,15.50
2010,08,17,05,51,15.50
2010,08,17,05,52,15.50
2010,08,17,05,53,15.40
2010,08,17,05,54,15.40
2010,08,17,05,55,15.40
2010,08,17,05,56,15.40
2010,08,17,05,57,15.40
2010,08,17,05,58,15.40
2010,08,17,05,59,15.40
2010,08,17,06,00,15.40
2010,08,17,06,01,15.40
2010,08,17,06,02,15.40
2010,08,17,06,03,15.30
2010,08,17,06,04,15.30
2010,08,17,06,05,15.30
2010,08,17,06,06,15.30
2010,08,17,06,07,15.30
2010,08,17,06,08,15.30
2010,08,17,06,09,15.30
2010,08,17,06,10,15.30
2010,08,17,06,11,15.30
2010,08,17,06,12,15.30
2010,08,17,06,13,15.30
2010,08,17,06,14,15.30
2010,08,17,06,15,15.30
2010,08,17,06,16,15.30
2010,08,17,06,17,15.30
2010,08,17,06,18,15.30
2010,08,17,06,19,15.30
2010,08,17,06,20,15.30
2010,08,17,06,21,15.30
2010,08,17,06,22,15.30
2010,08,17,06,23,15.30
2010,08,17,06,24,15.30
2010,08,17,06,25,15.30
2010,08,17,06,26,15.30
2010,08,17,06,27,15.20
2010,08,17,06,28,15.30
2010,08,17,06,29,15.20
2010,08,17,06,30,15.20
2010,08,17,06,31,15.20
2010,08,17,06,32,15.20
2010,08,17,06,33,15.20
2010,08,17,06,34,15.20
2010,08,17,06,35,15.20
2010,08,17,06,36,15.20
2010,08,17,06,37,15.20
2010,08,17,06,38,15.20
2010,08,17,06,39,15.20
2010,08,17,06,40,15.20
2010,08,17,06,41,15.20
2010,08,17,06,42,15.20
2010,08,17,06,43,15.20
2010,08,17,06,44,15.20
2010,08,17,06,45,15.20
2010,08,17,06,46,15.20
2010,08,17,06,47,15.20
2010,08,17,06,48,15.20
2010,08,17,06,49,15.20
2010,08,17,06,50,15.20
2010,08,17,06,51,15.20
2010,08,17,06,52,15.20
2010,08,17,06,53,15.20
2010,08,17,06,54,15.20
2010,08,17,06,55,15.20
2010,08,17,06,56,15.30
2010,08,17,06,57,15.30
2010,08,17,06,58,15.30
2010,08,17,06,59,15.30
2010,08,17,07,00,15.30
2010,08,17,07,01,15.30
2010,08,17,07,02,15.30
2010,08,17,07,03,15.30
2010,08,17,07,04,15.30
2010,08,17,07,05,15.30
2010,08,17,07,06,15.30
2010,08,17,07,07,15.30
2010,08,17,07,08,15.30
2010,08,17,07,09,15.40
2010,08,17,07,10,15.40
2010,08,17,07,11,15.40
2010,08,17,07,12,15.40
2010,08,17,07,13,15.40
2010,08,17,07,14,15.40
2010,08,17,07,15,15.40
2010,08,17,07,16,15.40
2010,08,17,07,17,15.40
2010,08,17,07,18,15.40
2010,08,17,07,19,15.40
2010,08,17,07,20,15.50
2010,08,17,07,21,15.50
2010,08,17,07,22,15.50
2010,08,17,07,23,15.50
2010,08,17,07,24,15.50
2010,08,17,07,25,15.60
2010,08,17,07,26,15.60
2010,08,17,07,27,15.60
2010,08,17,07,28,15.60
2010,08,17,07,29,15.60
2010,08,17,07,30,15.60
2010,08,17,07,31,15.60
2010,08,17,07,32,15.70
2010,08,17,07,33,15.70
2010,08,17,07,34,15.70
2010,08,17,07,35,15.70
2010,08,17,07,36,15.70
2010,08,17,07,37,15.70
2010,08,17,07,38,15.70
2010,08,17,07,39,15.70
2010,08,17,07,40,15.80
2010,08,17,07,41,15.80
2010,08,17,07,42,15.80
2010,08,17,07,43,15.80
2010,08,17,07,44,15.80
2010,08,17,07,45,15.80
2010,08,17,07,46,15.80
2010,08,17,07,47,15.80
2010,08,17,07,48,15.90
2010,08,17,07,49,15.90
2010,08,17,07,50,15.90
2010,08,17,07,51,15.90
2010,08,17,07,52,16.00
2010,08,17,07,53,16.00
2010,08,17,07,54,16.00
2010,08,17,07,55,16.00
2010,08,17,07,56,16.10
2010,08,17,07,57,16.10
2010,08,17,07,58,16.10
2010,08,17,07,59,16.10
2010,08,17,08,00,16.10
2010,08,17,08,01,16.20
2010,08,17,08,02,16.20
2010,08,17,08,03,16.20
2010,08,17,08,04,16.20
2010,08,17,08,05,16.20
2010,08,17,08,06,16.30
2010,08,17,08,07,16.30
2010,08,17,08,08,16.30
2010,08,17,08,09,16.30
2010,08,17,08,10,16.40
2010,08,17,08,11,16.40
2010,08,17,08,12,16.40
2010,08,17,08,13,16.40
2010,08,17,08,14,16.50
2010,08,17,08,15,16.50
2010,08,17,08,16,16.60
2010,08,17,08,17,16.60
2010,08,17,08,18,16.60
2010,08,17,08,19,16.70
2010,08,17,08,20,16.80
2010,08,17,08,21,16.80
2010,08,17,08,22,16.90
2010,08,17,08,23,17.00
2010,08,17,08,24,17.10
2010,08,17,08,25,17.20
2010,08,17,08,26,17.30
2010,08,17,08,27,17.40
2010,08,17,08,28,17.50
2010,08,17,08,29,17.60
2010,08,17,08,30,17.70
2010,08,17,08,31,17.80
2010,08,17,08,32,17.90
2010,08,17,08,33,17.90
2010,08,17,08,34,18.00
2010,08,17,08,35,18.10
2010,08,17,08,36,18.10
2010,08,17,08,37,18.10
2010,08,17,08,38,18.10
2010,08,17,08,39,18.20
2010,08,17,08,40,18.20
2010,08,17,08,41,18.20
2010,08,17,08,42,18.30
2010,08,17,08,43,18.30
2010,08,17,08,44,18.30
2010,08,17,08,45,18.40
2010,08,17,08,46,18.40
2010,08,17,08,47,18.40
2010,08,17,08,48,18.50
2010,08,17,08,49,18.60
2010,08,17,08,50,18.60
2010,08,17,08,51,18.70
2010,08,17,08,52,18.70
2010,08,17,08,53,18.80
2010,08,17,08,54,18.80
2010,08,17,08,55,18.80
2010,08,17,08,56,18.90
2010,08,17,08,57,18.90
2010,08,17,08,58,18.90
2010,08,17,08,59,18.90
2010,08,17,09,00,18.90
2010,08,17,09,01,18.90
2010,08,17,09,02,19.00
2010,08,17,09,03,19.00
2010,08,17,09,04,19.00
2010,08,17,09,05,19.00
2010,08,17,09,06,19.00
2010,08,17,09,07,19.00
2010,08,17,09,08,19.10
2010,08,17,09,09,19.10
2010,08,17,09,10,19.10
2010,08,17,09,11,19.10
2010,08,17,09,12,19.10
2010,08,17,09,13,19.10
2010,08,17,09,14,19.10
2010,08,17,09,15,19.10
2010,08,17,09,16,19.10
2010,08,17,09,17,19.10
2010,08,17,09,18,19.10
2010,08,17,09,19,19.10
2010,08,17,09,20,19.20
2010,08,17,09,21,19.20
2010,08,17,09,22,19.20
2010,08,17,09,23,19.20
2010,08,17,09,24,19.20
2010,08,17,09,25,19.20
2010,08,17,09,26,19.20
2010,08,17,09,27,19.20
2010,08,17,09,28,19.30
2010,08,17,09,29,19.30
2010,08,17,09,30,19.30
2010,08,17,09,31,19.30
2010,08,17,09,32,19.40
2010,08,17,09,33,19.40
2010,08,17,09,34,19.40
2010,08,17,09,35,19.40
2010,08,17,09,36,19.50
2010,08,17,09,37,19.50
2010,08,17,09,38,19.60
2010,08,17,09,39,19.60
2010,08,17,09,40,19.60
2010,08,17,09,41,19.70
2010,08,17,09,42,19.80
2010,08,17,09,43,19.80
2010,08,17,09,44,19.90
2010,08,17,09,45,20.00
2010,08,17,09,46,20.00
2010,08,17,09,47,20.10
2010,08,17,09,48,20.10
2010,08,17,09,49,20.20
2010,08,17,09,50,20.30
2010,08,17,09,51,20.40
2010,08,17,09,52,20.40
2010,08,17,09,53,20.50
2010,08,17,09,54,20.50
2010,08,17,09,55,20.60
2010,08,17,09,56,20.60
2010,08,17,09,57,20.60
2010,08,17,09,58,20.60
2010,08,17,09,59,20.70
2010,08,17,10,00,20.70
2010,08,17,10,01,20.70
2010,08,17,10,02,20.80
2010,08,17,10,03,20.80
2010,08,17,10,04,20.80
2010,08,17,10,05,20.90
2010,08,17,10,06,20.90
2010,08,17,10,07,21.00
2010,08,17,10,08,21.10
2010,08,17,10,09,21.10
2010,08,17,10,10,21.10
2010,08,17,10,11,21.10
2010,08,17,10,12,21.10
2010,08,17,10,13,21.20
2010,08,17,10,14,21.20
2010,08,17,10,15,21.30
2010,08,17,10,16,21.30
2010,08,17,10,17,21.30
2010,08,17,10,18,21.40
2010,08,17,10,19,21.40
2010,08,17,10,20,21.50
2010,08,17,10,21,21.60
2010,08,17,10,22,21.60
2010,08,17,10,23,21.70
2010,08,17,10,24,21.70
2010,08,17,10,25,21.80
2010,08,17,10,26,21.80
2010,08,17,10,27,21.80
2010,08,17,10,28,21.80
2010,08,17,10,29,21.80
2010,08,17,10,30,21.80
2010,08,17,10,31,21.80
2010,08,17,10,32,21.80
2010,08,17,10,33,21.70
2010,08,17,10,34,21.70
2010,08,17,10,35,21.70
2010,08,17,10,36,21.70
2010,08,17,10,37,21.70
2010,08,17,10,38,21.70
2010,08,17,10,39,21.70
2010,08,17,10,40,21.80
2010,08,17,10,41,21.80
2010,08,17,10,42,21.80
2010,08,17,10,43,21.90
2010,08,17,10,44,21.90
2010,08,17,10,45,22.00
2010,08,17,10,46,22.10
2010,08,17,10,47,22.10
2010,08,17,10,48,22.00
2010,08,17,10,49,22.00
2010,08,17,10,50,22.10
2010,08,17,10,51,22.10
2010,08,17,10,52,22.10
2010,08,17,10,53,22.10
2010,08,17,10,54,22.00
2010,08,17,10,55,21.90
2010,08,17,10,56,21.90
2010,08,17,10,57,21.90
2010,08,17,10,58,21.90
2010,08,17,10,59,21.90
2010,08,17,11,00,21.90
2010,08,17,11,01,21.90
2010,08,17,11,02,21.80
2010,08,17,11,03,21.80
2010,08,17,11,04,21.80
2010,08,17,11,05,21.70
2010,08,17,11,06,21.60
2010,08,17,11,07,21.60
2010,08,17,11,08,21.60
2010,08,17,11,09,21.70
2010,08,17,11,10,21.70
2010,08,17,11,11,21.70
2010,08,17,11,12,21.80
2010,08,17,11,13,21.80
2010,08,17,11,14,21.90
2010,08,17,11,15,22.00
2010,08,17,11,16,22.10
2010,08,17,11,17,22.10
2010,08,17,11,18,22.20
2010,08,17,11,19,22.20
2010,08,17,11,20,22.20
2010,08,17,11,21,22.20
2010,08,17,11,22,22.30
2010,08,17,11,23,22.40
2010,08,17,11,24,22.50
2010,08,17,11,25,22.60
2010,08,17,11,26,22.60
2010,08,17,11,27,22.70
2010,08,17,11,28,22.70
2010,08,17,11,29,22.70
2010,08,17,11,30,22.60
2010,08,17,11,31,22.40
2010,08,17,11,32,22.30
2010,08,17,11,33,22.10
2010,08,17,11,34,21.90
2010,08,17,11,35,21.80
2010,08,17,11,36,21.70
2010,08,17,11,37,21.60
2010,08,17,11,38,21.50
2010,08,17,11,39,21.50
2010,08,17,11,40,21.50
2010,08,17,11,41,21.50
2010,08,17,11,42,21.50
2010,08,17,11,43,21.50
2010,08,17,11,44,21.50
2010,08,17,11,45,21.50
2010,08,17,11,46,21.50
2010,08,17,11,47,21.50
2010,08,17,11,48,21.60
2010,08,17,11,49,21.60
2010,08,17,11,50,21.60
2010,08,17,11,51,21.60
2010,08,17,11,52,21.60
2010,08,17,11,53,21.70
2010,08,17,11,54,21.70
2010,08,17,11,55,21.70
2010,08,17,11,56,21.60
2010,08,17,11,57,21.60
2010,08,17,11,58,21.60
2010,08,17,11,59,21.60
2010,08,17,12,00,21.50
2010,08,17,12,01,21.50
2010,08,17,12,02,21.50
2010,08,17,12,03,21.40
2010,08,17,12,04,21.50
2010,08,17,12,05,21.50
2010,08,17,12,06,21.50
2010,08,17,12,07,21.50
2010,08,17,12,08,21.50
2010,08,17,12,09,21.50
2010,08,17,12,10,21.40
2010,08,17,12,11,21.40
2010,08,17,12,12,21.40
2010,08,17,12,13,21.40
2010,08,17,12,14,21.40
2010,08,17,12,15,21.50
2010,08,17,12,16,21.40
2010,08,17,12,17,21.40
2010,08,17,12,18,21.40
2010,08,17,12,19,21.40
2010,08,17,12,20,21.40
2010,08,17,12,21,21.30
2010,08,17,12,22,21.30
2010,08,17,12,23,21.40
2010,08,17,12,24,21.40
2010,08,17,12,25,21.40
2010,08,17,12,26,21.40
2010,08,17,12,27,21.40
2010,08,17,12,28,21.40
2010,08,17,12,29,21.30
2010,08,17,12,30,21.30
2010,08,17,12,31,21.30
2010,08,17,12,32,21.30
2010,08,17,12,33,21.30
2010,08,17,12,34,21.30
2010,08,17,12,35,21.30
2010,08,17,12,36,21.30
2010,08,17,12,37,21.20
2010,08,17,12,38,21.20
2010,08,17,12,39,21.10
2010,08,17,12,40,21.10
2010,08,17,12,41,21.00
2010,08,17,12,42,20.90
2010,08,17,12,43,20.90
2010,08,17,12,44,20.90
2010,08,17,12,45,20.90
2010,08,17,12,46,20.90
2010,08,17,12,47,20.90
2010,08,17,12,48,21.00
2010,08,17,12,49,21.00
2010,08,17,12,50,21.10
2010,08,17,12,51,21.10
2010,08,17,12,52,21.10
2010,08,17,12,53,21.20
2010,08,17,12,54,21.20
2010,08,17,12,55,21.30
2010,08,17,12,56,21.40
2010,08,17,12,57,21.50
2010,08,17,12,58,21.50
2010,08,17,12,59,21.60
2010,08,17,13,00,21.60
2010,08,17,13,01,21.50
2010,08,17,13,02,21.50
2010,08,17,13,03,21.40
2010,08,17,13,04,21.40
2010,08,17,13,05,21.40
2010,08,17,13,06,21.50
2010,08,17,13,07,21.50
2010,08,17,13,08,21.50
2010,08,17,13,09,21.60
2010,08,17,13,10,21.70
2010,08,17,13,11,21.80
2010,08,17,13,12,21.80
2010,08,17,13,13,21.90
2010,08,17,13,14,22.00
2010,08,17,13,15,22.10
2010,08,17,13,16,22.20
2010,08,17,13,17,22.20
2010,08,17,13,18,22.30
2010,08,17,13,19,22.30
2010,08,17,13,20,22.40
2010,08,17,13,21,22.30
2010,08,17,13,22,22.30
2010,08,17,13,23,22.30
2010,08,17,13,24,22.30
2010,08,17,13,25,22.30
2010,08,17,13,26,22.30
2010,08,17,13,27,22.40
2010,08,17,13,28,22.40
2010,08,17,13,29,22.40
2010,08,17,13,30,22.40
2010,08,17,13,31,22.40
2010,08,17,13,32,22.50
2010,08,17,13,33,22.50
2010,08,17,13,34,22.60
2010,08,17,13,35,22.60
2010,08,17,13,36,22.60
2010,08,17,13,37,22.70
2010,08,17,13,38,22.70
2010,08,17,13,39,22.80
2010,08,17,13,40,22.80
2010,08,17,13,41,22.80
2010,08,17,13,42,22.80
2010,08,17,13,43,22.80
2010,08,17,13,44,22.80
2010,08,17,13,45,22.80
2010,08,17,13,46,22.80
2010,08,17,13,47,22.80
2010,08,17,13,48,22.80
2010,08,17,13,49,22.90
2010,08,17,13,50,22.90
2010,08,17,13,51,22.90
2010,08,17,13,52,22.90
2010,08,17,13,53,22.90
2010,08,17,13,54,22.90
2010,08,17,13,55,22.90
2010,08,17,13,56,23.00
2010,08,17,13,57,23.00
2010,08,17,13,58,23.10
2010,08,17,13,59,23.10
2010,08,17,14,00,23.20
2010,08,17,14,01,23.20
2010,08,17,14,02,23.20
2010,08,17,14,03,23.30
2010,08,17,14,04,23.30
2010,08,17,14,05,23.30
2010,08,17,14,06,23.40
2010,08,17,14,07,23.40
2010,08,17,14,08,23.40
2010,08,17,14,09,23.40
2010,08,17,14,10,23.50
2010,08,17,14,11,23.50
2010,08,17,14,12,23.60
2010,08,17,14,13,23.60
2010,08,17,14,14,23.70
2010,08,17,14,15,23.70
2010,08,17,14,16,23.70
2010,08,17,14,17,23.80
2010,08,17,14,18,23.80
2010,08,17,14,19,23.80
2010,08,17,14,20,23.90
2010,08,17,14,21,23.90
2010,08,17,14,22,23.90
2010,08,17,14,23,23.90
2010,08,17,14,24,23.90
2010,08,17,14,25,24.00
2010,08,17,14,26,24.00
2010,08,17,14,27,24.10
2010,08,17,14,28,24.20
2010,08,17,14,29,24.20
2010,08,17,14,30,24.30
2010,08,17,14,31,24.30
2010,08,17,14,32,24.30
2010,08,17,14,33,24.30
2010,08,17,14,34,24.30
2010,08,17,14,35,24.30
2010,08,17,14,36,24.30
2010,08,17,14,37,24.30
2010,08,17,14,38,24.20
2010,08,17,14,39,24.20
2010,08,17,14,40,24.10
2010,08,17,14,41,24.10
2010,08,17,14,42,24.10
2010,08,17,14,43,24.00
2010,08,17,14,44,24.00
2010,08,17,14,45,23.90
2010,08,17,14,46,23.90
2010,08,17,14,47,23.90
2010,08,17,14,48,23.90
2010,08,17,14,49,23.80
2010,08,17,14,50,23.80
2010,08,17,14,51,23.90
2010,08,17,14,52,23.90
2010,08,17,14,53,24.00
2010,08,17,14,54,24.10
2010,08,17,14,55,24.10
2010,08,17,14,56,24.20
2010,08,17,14,57,24.30
2010,08,17,14,58,24.40
2010,08,17,14,59,24.50
2010,08,17,15,00,24.60
2010,08,17,15,01,24.70
2010,08,17,15,02,24.70
2010,08,17,15,03,24.80
2010,08,17,15,04,24.90
2010,08,17,15,05,25.00
2010,08,17,15,06,25.10
2010,08,17,15,07,25.10
2010,08,17,15,08,25.20
2010,08,17,15,09,25.30
2010,08,17,15,10,25.40
2010,08,17,15,11,25.50
2010,08,17,15,12,25.60
2010,08,17,15,13,25.60
2010,08,17,15,14,25.60
2010,08,17,15,15,25.60
2010,08,17,15,16,25.60
2010,08,17,15,17,25.60
2010,08,17,15,18,25.50
2010,08,17,15,19,25.50
2010,08,17,15,20,25.60
2010,08,17,15,21,25.60
2010,08,17,15,22,25.60
2010,08,17,15,23,25.50
2010,08,17,15,24,25.50
2010,08,17,15,25,25.60
2010,08,17,15,26,25.60
2010,08,17,15,27,25.70
2010,08,17,15,28,25.70
2010,08,17,15,29,25.70
2010,08,17,15,30,25.70
2010,08,17,15,31,25.70
2010,08,17,15,32,25.70
2010,08,17,15,33,25.70
2010,08,17,15,34,25.70
2010,08,17,15,35,25.70
2010,08,17,15,36,25.70
2010,08,17,15,37,25.70
2010,08,17,15,38,25.70
2010,08,17,15,39,25.80
2010,08,17,15,40,25.90
2010,08,17,15,41,25.90
2010,08,17,15,42,25.90
2010,08,17,15,43,25.90
2010,08,17,15,44,26.00
2010,08,17,15,45,26.10
2010,08,17,15,46,26.10
2010,08,17,15,47,26.10
2010,08,17,15,48,26.10
2010,08,17,15,49,26.20
2010,08,17,15,50,26.30
2010,08,17,15,51,26.40
2010,08,17,15,52,26.50
2010,08,17,15,53,26.60
2010,08,17,15,54,26.70
2010,08,17,15,55,26.80
2010,08,17,15,56,26.80
2010,08,17,15,57,26.80
2010,08,17,15,58,26.70
2010,08,17,15,59,26.60
2010,08,17,16,00,26.60
2010,08,17,16,01,26.50
2010,08,17,16,02,26.60
2010,08,17,16,03,26.60
2010,08,17,16,04,26.70
2010,08,17,16,05,26.80
2010,08,17,16,06,26.80
2010,08,17,16,07,26.90
2010,08,17,16,08,26.90
2010,08,17,16,09,26.90
2010,08,17,16,10,27.00
2010,08,17,16,11,27.10
2010,08,17,16,12,27.20
2010,08,17,16,13,27.20
2010,08,17,16,14,27.30
2010,08,17,16,15,27.40
2010,08,17,16,16,27.60
2010,08,17,16,17,27.60
2010,08,17,16,18,27.70
2010,08,17,16,19,27.70
2010,08,17,16,20,27.70
2010,08,17,16,21,27.70
2010,08,17,16,22,27.70
2010,08,17,16,23,27.70
2010,08,17,16,24,27.70
2010,08,17,16,25,27.70
2010,08,17,16,26,27.70
2010,08,17,16,27,27.70
2010,08,17,16,28,27.80
2010,08,17,16,29,27.80
2010,08,17,16,30,27.80
2010,08,17,16,31,27.80
2010,08,17,16,32,27.80
2010,08,17,16,33,27.70
2010,08,17,16,34,27.70
2010,08,17,16,35,27.60
2010,08,17,16,36,27.60
2010,08,17,16,37,27.70
2010,08,17,16,38,27.70
2010,08,17,16,39,27.80
2010,08,17,16,40,27.90
2010,08,17,16,41,27.90
2010,08,17,16,42,27.90
2010,08,17,16,43,27.90
2010,08,17,16,44,27.80
2010,08,17,16,45,27.80
2010,08,17,16,46,27.80
2010,08,17,16,47,27.80
2010,08,17,16,48,27.80
2010,08,17,16,49,27.80
2010,08,17,16,50,27.90
2010,08,17,16,51,27.90
2010,08,17,16,52,28.00
2010,08,17,16,53,28.10
2010,08,17,16,54,28.10
2010,08,17,16,55,28.20
2010,08,17,16,56,28.20
2010,08,17,16,57,28.20
2010,08,17,16,58,28.20
2010,08,17,16,59,28.20
2010,08,17,17,00,28.30
2010,08,17,17,01,28.30
2010,08,17,17,02,28.30
2010,08,17,17,03,28.30
2010,08,17,17,04,28.30
2010,08,17,17,05,28.40
2010,08,17,17,06,28.40
2010,08,17,17,07,28.40
2010,08,17,17,08,28.40
2010,08,17,17,09,28.40
2010,08,17,17,10,28.40
2010,08,17,17,11,28.40
2010,08,17,17,12,28.40
2010,08,17,17,13,28.40
2010,08,17,17,14,28.30
2010,08,17,17,15,28.30
2010,08,17,17,16,28.30
2010,08,17,17,17,28.30
2010,08,17,17,18,28.30
2010,08,17,17,19,28.20
2010,08,17,17,20,28.10
2010,08,17,17,21,28.10
2010,08,17,17,22,28.10
2010,08,17,17,23,28.20